Regional Weather Roundup
Issued by NWS Newport/Morehead, NC

Current Version | Previous Version | Text Only | Print | Product List | Glossary On
Versions: 1 2 3 4 5 6 7 8 9 10 11 12 13 14 15 16 17 18 19 20 21 22 23 24 25 26 27 28 29 30 31 32 33 34 35 36 37 38 39 40 41 42 43 44 45 46 47 48 49 50
000
ASUS42 KMHX 250526
RWRMHX
WEATHER ROUNDUP FOR EASTERN NORTH CAROLINA
NATIONAL WEATHER SERVICE NEWPORT/MOREHEAD CITY NC
100 AM EDT MON SEP 25 2017

NOTE: "FAIR" INDICATES FEW OR NO CLOUDS BELOW 12,000 FEET
WITH NO SIGNIFICANT WEATHER AND/OR OBSTRUCTIONS TO VISIBILITY

NCZ015>017-031-032-045>047-102-103-250600-
NORTH COAST

CITY           SKY/WX    TMP DP  RH WIND       PRES   REMARKS
EDENTON        CLOUDY    68  66  92 CALM      29.98F
ELIZABETH CITY CLEAR     70  69  97 N10       29.97F
KITTY HAWK     CLOUDY    70  65  84 E6G16     29.96S
MANTEO         CLOUDY    71  67  85 NE16G23   29.97S

$$

NCZ045>047-081-094-103-104-250600-
CENTRAL COAST

CITY           SKY/WX    TMP DP  RH WIND       PRES   REMARKS
FRISCO         MOCLDY    73  70  90 NE9G21    29.93S

$$

NCZ095-097-098-100-101-250600-
SOUTHERN COAST

CITY           SKY/WX    TMP DP  RH WIND       PRES   REMARKS
BEAUFORT       CLOUDY    73  72  96 NE10G20   29.92F
CEDAR ISLAND   NOT AVBL
JACKSONVILLE   MOCLDY    71  67  87 N8        29.94S
PINEY ISLAND   FLURRIES N/A N/A N/A NE14      29.93F
WILMINGTON     MOCLDY    72  64  76 N10       29.93F


$$

NCZ011>013-027>030-043-044-078>080-089-090>093-098-250600-
COASTAL PLAIN

CITY           SKY/WX    TMP DP  RH WIND       PRES   REMARKS
AHOSKIE        PTCLDY    63  61  93 N3        30.00S
CLINTON        CLOUDY    68  65  89 N3        29.97F
ELIZABETHTOWN  NOT AVBL
GOLDSBORO      CLOUDY    69  66  88 N7        29.96F
GREENVILLE     PTCLDY    64  63  94 N3        30.00S
HAVELOCK       CLOUDY    73  70  90 NE15      29.95S
KENANSVILLE      N/A     68  63  83 NE5       29.96F FOG
KINSTON        CLOUDY    67  62  85 N3        29.97F
NEW BERN       CLOUDY    71  69  93 NE7       29.96F
RICHLANDS      MOCLDY    69  65  86 N8        29.95F
ROCKY MOUNT    CLEAR     66  62  87 CALM      30.00F
WASHINGTON     PTCLDY    67  65  90 N5        29.97S
WHITEVILLE     MOCLDY    72  65  80 N5        29.94S

$$

AMZ130-135-150-152-154-156-158-170-250-252-270-ANZ085-086-088-633-658-670-250600-
MARINE OBSERVATIONS

STATION/POSITION TIME  TEMP    WIND        PRES    WAVE   SWELL
                       AIR SEA DIR/SP/G            HT/PER HT/PER
                 (UTC) (F)     (DEG/KT/KT) (MB)    (FT/S) (FT/S)
CHESAPEAKE LIGHT NOT AVBL
64 E VA BEACH    0450   71 70   50/ 14/ 17 1015.1   11/16  10/16
DUCK             0500   72 77   50/ 19/ 22 1014.4
2 E DUCK         0500      75                N/A     5/14   3/14
OREGON INLET     0500   72 77   30/ 16/ 19 1014.0
13E OREGON INLT  0448      75                N/A     8/13   8/13
HATTERAS CG      0500   73 78   50/ 14/ 19 1013.4
DIAMOND BUOY     0450   76 80   40/ 19/ 25 1012.4   11/11  10/11
CAPE LOOKOUT     0500   75      30/ 21/ 23 1012.8
BEAUFORT LAB     0500   73 76   20/ 11/ 15 1012.8
30 SE NEW RVR IN 0508   76      40/ 19/ 25 1012.0
30 SE NEW RVR IN NOT AVBL
27 SE WRIGHTSVLE 0508   76 80   60/ 19/ 25 1011.9
5 SE WRIGHTSVLE  0408   76 78   30/ 14/ 21 1013.0
225 S CAPE HAT   0450   79 80   20/ 31/ 37 1000.7   22/13  13/13
41 SE CHARLESTON 0510   79      20/ 17/ 21 1010.8

$$




USA.gov is the U.S. government's official web portal to all federal, state and local government web resources and services.